Flag for Netherlands Weather past 2 weeks in Tilburg, Netherlands

Now
45 °F

Passing clouds.


Feels Like: 41 °F
Forecast: 39 / 60 °F
Wind: 7 mph from Northeast

Location: Gilze-Rijen

Current Time: Apr 22, 2015 at 12:01:42 AM

Latest Report: Apr 21, 2015 at 11:25 PM


Visibility: N/A

Pressure: 30.48 "Hg

Humidity: 87%

Dew point: 41 °F

Location of TilburgLocation

Historic Weather in Tilburg — Graph

°F

Tilburg temperature yesterday

Maximum temperature yesterday: 66 °F (at 3:55 PM)
Minimum temperature yesterday: 37 °F (at 7:25 AM)
Average temperature yesterday: 52 °F

Past Weeks' High & Low Weather Summary

 TemperatureHumidityPressure
High75 °F (Apr 15, 2:55 PM)100% (Apr 7, 3:25 AM)30.63 "Hg (Apr 7, 3:25 AM)
Low32 °F (Apr 7, 5:25 AM)29% (Apr 10, 4:25 PM)29.92 "Hg (Apr 15, 7:55 PM)
Average50 °F71%30.27 "Hg
* Reported Apr 6 10:25 PM — Apr 21 10:25 PM, Tilburg, Weather by CustomWeather, © 2015

Note: Actual official high and low records may vary slightly from our data, if they occured in-between our weather recording intervals... More about our weather records

Advertising

Tilburg weather history for previous 24 hours

 ConditionsComfort  
Time TempWeatherWind HumidityBarometerVisibility
10:25 PM
Tue, Apr 21
46 °FPassing clouds.12 mph82%30.48 "HgN/A
9:55 PM48 °FCool.13 mph82%30.48 "HgN/A
9:25 PM50 °FCool.13 mph76%30.48 "HgN/A
8:55 PM54 °FCool.12 mph58%30.45 "HgN/A
8:25 PM55 °FRefreshingly cool.12 mph51%30.45 "HgN/A
7:55 PM57 °FRefreshingly cool.14 mph55%30.45 "HgN/A
7:25 PM59 °FRefreshingly cool.12 mph48%30.45 "HgN/A
6:55 PM61 °FRefreshingly cool.13 mph45%30.45 "HgN/A
6:25 PM61 °FRefreshingly cool.13 mph55%30.45 "HgN/A
5:55 PM63 °FMild.14 mph45%30.45 "HgN/A
5:25 PM63 °FMild.14 mph49%30.45 "HgN/A
4:55 PM64 °FMild.14 mph46%30.45 "HgN/A
4:25 PM66 °FMild.13 mph35%30.45 "HgN/A
3:55 PM66 °FMild.13 mph37%30.45 "HgN/A
3:25 PM64 °FMild.13 mph40%30.45 "HgN/A
2:55 PM64 °FPassing clouds.10 mph46%30.45 "HgN/A
2:25 PM64 °FPassing clouds.9 mph49%30.48 "HgN/A
1:55 PM63 °FMild.8 mph56%30.45 "HgN/A
1:25 PM63 °FMild.7 mph56%30.48 "HgN/A
12:55 PM61 °FPassing clouds.8 mph52%30.48 "HgN/A
12:25 PM61 °FRefreshingly cool.6 mph52%30.48 "HgN/A
11:55 AM59 °FPassing clouds.7 mph51%30.48 "HgN/A
11:25 AM57 °FPassing clouds.7 mph59%30.48 "HgN/A
10:55 AM55 °FPassing clouds.6 mph67%30.48 "HgN/A
10:25 AM55 °FPassing clouds.7 mph67%30.48 "HgN/A
9:55 AM52 °FPartly sunny.6 mph77%30.48 "HgN/A
9:25 AM50 °FScattered clouds.6 mph82%30.48 "HgN/A
8:55 AM48 °FPartly sunny.8 mph87%30.48 "HgN/A
8:25 AM45 °FPartly sunny.7 mph100%30.45 "HgN/A
7:59 AM43 °FFog.3 mph100%30.45 "Hg5 mi
7:55 AM43 °FFog.2 mph100%30.45 "Hg4 mi
7:25 AM37 °FFog.7 mph100%30.45 "Hg0 mi
7:04 AM39 °FFog.2 mph100%30.45 "Hg2 mi
6:55 AM39 °FFog.3 mph100%30.45 "Hg2 mi
6:25 AM41 °FFog.6 mph100%30.42 "Hg3 mi
6:01 AM39 °FFog.5 mph100%30.42 "Hg4 mi
5:25 AM39 °FPassing clouds.5 mph100%30.42 "HgN/A
4:55 AM41 °FFog.3 mph93%30.42 "Hg5 mi
4:25 AM39 °FPassing clouds.5 mph100%30.45 "HgN/A
3:55 AM41 °FPassing clouds.5 mph93%30.45 "HgN/A
3:25 AM43 °FPassing clouds.6 mph87%30.45 "HgN/A
2:55 AM43 °FOvercast.5 mph87%30.42 "HgN/A
2:25 AM45 °FPassing clouds.5 mph81%30.42 "HgN/A
1:55 AM45 °FPassing clouds.6 mph81%30.42 "HgN/A
1:25 AM45 °FOvercast.6 mph81%30.42 "HgN/A
12:55 AM46 °FPassing clouds.5 mph82%30.42 "HgN/A
12:25 AM46 °FPassing clouds.6 mph82%30.42 "HgN/A
Weather by CustomWeather, © 2015

See weather overviewHow to use our weather pages